TimeCST,TemperatureF,Dew PointF,Humidity,Sea Level PressureIn,VisibilityMPH,Wind Direction,Wind SpeedMPH,Gust SpeedMPH,PrecipitationIn,Events,Conditions,WindDirDegrees,DateUTC
12:58 AM,48.4,38.1,68,30.03,10.0,NNW,8.1,-,N/A,,Clear,330,2013-02-16 06:58:00
1:58 AM,46.2,38.5,74,30.03,10.0,NW,9.2,-,N/A,,Clear,320,2013-02-16 07:58:00
2:58 AM,44.2,37.9,79,30.03,10.0,NW,5.8,-,N/A,,Clear,310,2013-02-16 08:58:00
3:58 AM,44.4,38.1,79,30.03,10.0,NW,5.8,-,N/A,,Overcast,310,2013-02-16 09:58:00
4:58 AM,44.8,38.3,78,30.04,10.0,WNW,4.6,-,N/A,,Overcast,300,2013-02-16 10:58:00
5:06 AM,44.6,37.4,76,30.03,10.0,WNW,4.6,-,N/A,Rain,Light Rain,300,2013-02-16 11:06:00
5:20 AM,44.6,37.4,76,30.03,10.0,NW,6.9,-,N/A,,Mostly Cloudy,310,2013-02-16 11:20:00
5:46 AM,44.6,37.4,76,30.05,10.0,NW,8.1,-,N/A,Rain,Light Rain,320,2013-02-16 11:46:00
5:58 AM,45.5,38.5,76,30.06,10.0,NW,8.1,-,0.00,Rain,Light Rain,310,2013-02-16 11:58:00
6:08 AM,46.4,39.2,76,30.05,10.0,NW,5.8,-,N/A,,Overcast,310,2013-02-16 12:08:00
6:20 AM,46.4,39.2,76,30.06,10.0,WNW,8.1,-,N/A,Rain,Light Rain,300,2013-02-16 12:20:00
6:38 AM,46.4,37.4,71,30.07,10.0,WNW,10.4,16.1,N/A,,Mostly Cloudy,290,2013-02-16 12:38:00
6:58 AM,45.7,36.5,70,30.08,10.0,WNW,8.1,-,0.00,,Mostly Cloudy,290,2013-02-16 12:58:00
7:37 AM,46.4,33.8,62,30.08,10.0,Variable,6.9,-,N/A,Rain,Light Rain,0,2013-02-16 13:37:00
7:49 AM,46.4,32.0,57,30.06,10.0,Variable,3.5,-,N/A,,Partly Cloudy,0,2013-02-16 13:49:00
7:58 AM,46.2,34.5,64,30.07,10.0,WSW,8.1,-,0.00,,Scattered Clouds,250,2013-02-16 13:58:00
8:58 AM,47.8,34.7,60,30.09,10.0,WNW,12.7,-,N/A,,Mostly Cloudy,290,2013-02-16 14:58:00
9:58 AM,49.8,29.1,45,30.10,10.0,NW,16.1,24.2,N/A,,Scattered Clouds,320,2013-02-16 15:58:00
10:58 AM,51.1,27.0,39,30.10,10.0,NW,12.7,23.0,N/A,,Scattered Clouds,310,2013-02-16 16:58:00
11:58 AM,50.5,24.6,36,30.08,10.0,NW,20.7,26.5,N/A,,Scattered Clouds,310,2013-02-16 17:58:00
12:41 PM,51.8,23.0,33,30.06,10.0,NW,16.1,20.7,N/A,,Scattered Clouds,320,2013-02-16 18:41:00
12:58 PM,52.5,23.4,32,30.07,10.0,NW,13.8,24.2,N/A,,Mostly Cloudy,310,2013-02-16 18:58:00
1:58 PM,49.3,17.2,28,30.06,10.0,West,17.3,35.7,N/A,,Mostly Cloudy,280,2013-02-16 19:58:00
1:59 PM,50.0,17.6,28,30.05,10.0,West,20.7,35.7,N/A,,Mostly Cloudy,280,2013-02-16 19:59:00
2:20 PM,48.2,17.6,30,30.06,10.0,NW,21.9,29.9,N/A,,Mostly Cloudy,320,2013-02-16 20:20:00
2:58 PM,48.7,16.0,27,30.08,10.0,WNW,17.3,27.6,N/A,,Mostly Cloudy,300,2013-02-16 20:58:00
3:58 PM,49.6,12.4,22,30.09,10.0,WNW,16.1,25.3,N/A,,Partly Cloudy,300,2013-02-16 21:58:00
4:58 PM,46.8,10.9,24,30.11,10.0,WNW,17.3,23.0,N/A,,Clear,300,2013-02-16 22:58:00
5:58 PM,43.3,13.6,30,30.13,10.0,NW,10.4,-,N/A,,Clear,320,2013-02-16 23:58:00
6:58 PM,40.6,15.1,35,30.16,10.0,NW,6.9,-,N/A,,Clear,310,2013-02-17 00:58:00
7:58 PM,39.4,15.6,38,30.20,10.0,WNW,5.8,-,N/A,,Clear,300,2013-02-17 01:58:00
8:58 PM,37.2,16.9,44,30.22,10.0,NW,5.8,-,N/A,,Clear,320,2013-02-17 02:58:00
9:58 PM,36.0,17.6,47,30.25,10.0,NW,5.8,-,N/A,,Clear,310,2013-02-17 03:58:00
10:58 PM,34.7,18.7,52,30.25,10.0,WNW,5.8,-,N/A,,Clear,300,2013-02-17 04:58:00
11:58 PM,33.1,19.6,58,30.27,10.0,WNW,4.6,-,N/A,,Clear,300,2013-02-17 05:58:00